{"data":{"norad_id":57300,"intl_designator":"2023-096L","name":"STARLINK-30236","alt_names":[],"object_type":"PAYLOAD","status":"ACTIVE","operator":null,"country":"US","launch_date":"2023-07-10","launch_site_code":"AFETR","launch_vehicle":null,"mission":null,"orbit_class":"UNKNOWN","rcs_meters":null,"size_class":null,"mass_kg":null,"dimensions":null,"purposes":["comms"],"wikipedia_slug":null,"has_3d_model":false,"image_url":null,"decayed_at":null,"tle_current":{"epoch":"2026-05-25T00:57:57.339072Z","epoch_age_seconds":82127,"freshness":"FRESH","line1":"1 57300U 23096L   26145.04024698 -.00000581  00000+0 -11598-4 0  9999","line2":"2 57300  42.9992 152.0289 0001444 274.8595  85.2091 15.27587934159339","mean_motion":15.27587934,"eccentricity":0.0001444,"inclination_deg":42.9992,"raan_deg":152.0289,"arg_perigee_deg":274.8595,"mean_anomaly_deg":85.2091,"bstar":-1.1598e-5,"rev_number":15933,"period_min":94.266259110161,"perigee_km":482.0345870505,"apogee_km":484.01609073397,"semimajor_km":6861.1623388922,"source":"CELESTRAK","updated_at":"2026-05-25T13:38:18.283879Z"}}}